Flag for South Africa Weather past 2 weeks in Stellenbosch, South Africa

Now
59 °F

Light rain. Mostly cloudy.


Feels Like: 56 °F
Forecast: 48 / 58 °F
Wind: 14 mph from Northwest

Location: Cape Town International Airport

Current Time: May 30, 2015 at 3:07:21 AM

Latest Report: May 30, 2015 at 2:00 AM


Visibility: 4 mi

Pressure: 29.95 "Hg

Humidity: 94%

Dew point: 57 °F

Location of StellenboschLocation

Historic Weather in Stellenbosch — Graph

°F

Stellenbosch temperature yesterday

Maximum temperature yesterday: 66 °F (at 1:00 PM)
Minimum temperature yesterday: 55 °F (at 1:00 AM)
Average temperature yesterday: 60 °F

Past Weeks' High & Low Weather Summary

 TemperatureHumidityPressure
High84 °F (May 22, 2:00 PM)100% (May 20, 9:00 AM)30.27 "Hg (May 20, 9:00 AM)
Low45 °F (May 17, 7:00 AM)24% (May 22, 4:00 PM)29.86 "Hg (May 18, 3:00 AM)
Average60 °F78%30.04 "Hg
* Reported May 15 1:00 AM — May 30 1:00 AM, Stellenbosch, Weather by CustomWeather, © 2015

Note: Actual official high and low records may vary slightly from our data, if they occured in-between our weather recording intervals... More about our weather records

Advertising

Stellenbosch weather history for previous 24 hours

 ConditionsComfort  
Time TempWeatherWind HumidityBarometerVisibility
1:00 AM
Sat, May 30
59 °FPartly cloudy.10 mph94%29.95 "HgN/A
12:00 AM59 °FLight rain. Mostly cloudy.8 mph94%29.92 "Hg4 mi
11:00 PM
Fri, May 29
61 °FPartly cloudy.13 mph88%29.92 "HgN/A
10:00 PM61 °FPartly cloudy.12 mph88%29.92 "HgN/A
9:00 PM59 °FLight rain. Mostly cloudy.12 mph94%29.95 "Hg4 mi
8:00 PM59 °FLight rain. Mostly cloudy.14 mph94%29.92 "Hg2 mi
7:00 PM61 °FLight rain. Mostly cloudy.16 mph88%29.89 "Hg5 mi
6:00 PM61 °FLight rain. Mostly cloudy.16 mph88%29.89 "Hg5 mi
5:00 PM63 °FMostly cloudy.15 mph77%29.89 "HgN/A
4:00 PM61 °FLight rain. Mostly cloudy.14 mph88%29.89 "Hg4 mi
3:00 PM64 °FPartly sunny.15 mph73%29.89 "HgN/A
2:00 PM64 °FPartly sunny.16 mph73%29.89 "HgN/A
1:00 PM66 °FBroken clouds.14 mph68%29.92 "HgN/A
12:00 PM64 °FBroken clouds.17 mph73%29.95 "HgN/A
11:00 AM61 °FBroken clouds.10 mph77%29.95 "HgN/A
10:00 AM59 °FPassing clouds.15 mph82%29.92 "HgN/A
9:00 AM57 °FPassing clouds.15 mph88%29.92 "HgN/A
8:00 AM55 °FPassing clouds.13 mph94%29.92 "HgN/A
7:00 AM59 °FPassing clouds.10 mph88%29.89 "HgN/A
6:00 AM57 °FPassing clouds.10 mph88%29.89 "HgN/A
5:00 AM57 °FPassing clouds.15 mph82%29.92 "HgN/A
4:00 AM59 °FPassing clouds.14 mph77%29.92 "HgN/A
3:00 AM59 °FPassing clouds.13 mph77%29.95 "HgN/A
Weather by CustomWeather, © 2015

See weather overviewHow to use our weather pages